| time (UTC) | temp C | wind direction | speed KPH | gust KPH | rain 1hr cm | rain 24hr cm | rain mn cm | humidity % | barometer mb |
| 20260507220046 | 15 | 254 | 8.0 | 16.1 | 0.00 | 0.00 | 0.00 | 37 | 1011.8 |
| 20260507220004 | 15 | 302 | 4.8 | 16.1 | 0.00 | 0.00 | 0.00 | 38 | 1011.7 |
| 20260507215004 | 15 | 303 | 6.4 | 17.7 | 0.00 | 0.00 | 0.00 | 36 | 1011.8 |
| 20260507214602 | 15 | 271 | 6.4 | 17.7 | 0.00 | 0.00 | 0.00 | 37 | 1011.9 |
| 20260507214004 | 15 | 293 | 4.8 | 17.7 | 0.00 | 0.00 | 0.00 | 39 | 1011.6 |
| 20260507213010 | 15 | 314 | 6.4 | 14.5 | 0.00 | 0.00 | 0.00 | 38 | 1011.7 |
| 20260507213004 | 15 | 278 | 6.4 | 14.5 | 0.00 | 0.00 | 0.00 | 38 | 1011.5 |
| 20260507212005 | 15 | 269 | 3.2 | 17.7 | 0.00 | 0.00 | 0.00 | 41 | 1011.7 |
| 20260507211523 | 15 | 295 | 9.7 | 22.5 | 0.00 | 0.00 | 0.00 | 38 | 1011.8 |
| 20260507211006 | 15 | 264 | 16.1 | 22.5 | 0.00 | 0.00 | 0.00 | 39 | 1011.6 |
| 20260507210037 | 15 | 283 | 6.4 | 14.5 | 0.00 | 0.00 | 0.00 | 38 | 1011.7 |
| 20260507210006 | 15 | 268 | 11.3 | 14.5 | 0.00 | 0.00 | 0.00 | 40 | 1011.5 |
| 20260507205009 | 15 | 321 | 6.4 | 16.1 | 0.00 | 0.00 | 0.00 | 39 | 1011.4 |
| 20260507204550 | 15 | 260 | 3.2 | 16.1 | 0.00 | 0.00 | 0.00 | 41 | 1011.7 |
| 20260507204004 | 15 | 322 | 8.0 | 11.3 | 0.00 | 0.00 | 0.00 | 40 | 1011.5 |
| 20260507203108 | 15 | 295 | 4.8 | 17.7 | 0.00 | 0.00 | 0.00 | 41 | 1011.7 |
| 20260507203005 | 15 | 290 | 8.0 | 17.7 | 0.00 | 0.00 | 0.00 | 40 | 1011.5 |
| 20260507202005 | 15 | 303 | 6.4 | 16.1 | 0.00 | 0.00 | 0.00 | 42 | 1011.5 |
| 20260507201516 | 15 | 284 | 8.0 | 16.1 | 0.00 | 0.00 | 0.00 | 41 | 1011.7 |
| 20260507201005 | 15 | 298 | 9.7 | 16.1 | 0.00 | 0.00 | 0.00 | 41 | 1011.7 |
| 20260507200030 | 15 | 333 | 6.4 | 17.7 | 0.00 | 0.00 | 0.00 | 42 | 1011.9 |
| 20260507195005 | 15 | 269 | 4.8 | 16.1 | 0.00 | 0.00 | 0.00 | 40 | 1011.9 |
| 20260507194534 | 15 | 316 | 6.4 | 24.1 | 0.00 | 0.00 | 0.00 | 41 | 1012.0 |
| 20260507194005 | 16 | 297 | 6.4 | 24.1 | 0.00 | 0.00 | 0.00 | 43 | 1012.0 |
| 20260507193054 | 15 | 297 | 6.4 | 14.5 | 0.00 | 0.00 | 0.00 | 43 | 1012.1 |
| 20260507193005 | 15 | 352 | 6.4 | 16.1 | 0.00 | 0.00 | 0.00 | 43 | 1012.0 |
| 20260507192005 | 15 | 293 | 4.8 | 17.7 | 0.00 | 0.00 | 0.00 | 45 | 1012.1 |
| 20260507191603 | 15 | 264 | 3.2 | 17.7 | 0.00 | 0.00 | 0.00 | 44 | 1012.2 |
| 20260507191004 | 16 | 250 | 6.4 | 14.5 | 0.00 | 0.00 | 0.00 | 44 | 1012.1 |
| 20260507190012 | 16 | 225 | 4.8 | 17.7 | 0.00 | 0.00 | 0.00 | 45 | 1012.2 |
| 20260507190006 | 16 | 231 | 3.2 | 17.7 | 0.00 | 0.00 | 0.00 | 45 | 1012.1 |
| 20260507184522 | 15 | 297 | 8.0 | 20.9 | 0.00 | 0.00 | 0.00 | 45 | 1012.4 |
| 20260507184005 | 15 | 259 | 3.2 | 16.1 | 0.00 | 0.00 | 0.00 | 44 | 1012.3 |
| 20260507183039 | 15 | 321 | 6.4 | 14.5 | 0.00 | 0.00 | 0.00 | 44 | 1012.5 |
| 20260507183005 | 15 | 318 | 4.8 | 14.5 | 0.00 | 0.00 | 0.00 | 44 | 1012.4 |
| 20260507182009 | 15 | 265 | 11.3 | 17.7 | 0.00 | 0.00 | 0.00 | 45 | 1012.6 |
| 20260507181547 | 15 | 306 | 3.2 | 17.7 | 0.00 | 0.00 | 0.00 | 46 | 1012.6 |
| 20260507181004 | 15 | 289 | 11.3 | 17.7 | 0.00 | 0.00 | 0.00 | 48 | 1012.6 |
| 20260507180056 | 14 | 325 | 8.0 | 17.7 | 0.00 | 0.00 | 0.00 | 46 | 1012.8 |
| 20260507180007 | 14 | 288 | 11.3 | 17.7 | 0.00 | 0.00 | 0.00 | 47 | 1012.7 |
| 20260507175005 | 14 | 285 | 9.7 | 16.1 | 0.00 | 0.00 | 0.00 | 46 | 1012.9 |
| 20260507174509 | 13 | 259 | 4.8 | 17.7 | 0.00 | 0.00 | 0.00 | 46 | 1013.0 |
| 20260507174005 | 14 | 240 | 1.6 | 17.7 | 0.00 | 0.00 | 0.00 | 45 | 1012.9 |
| 20260507173019 | 14 | 272 | 3.2 | 11.3 | 0.00 | 0.00 | 0.00 | 45 | 1013.2 |
| 20260507173007 | 14 | 243 | 3.2 | 12.9 | 0.00 | 0.00 | 0.00 | 45 | 1013.1 |
| 20260507172005 | 13 | 276 | 4.8 | 14.5 | 0.00 | 0.00 | 0.00 | 47 | 1013.3 |
| 20260507171531 | 13 | 307 | 1.6 | 24.1 | 0.00 | 0.00 | 0.00 | 45 | 1013.4 |
| 20260507171007 | 14 | 296 | 6.4 | 24.1 | 0.00 | 0.00 | 0.00 | 44 | 1013.3 |
| 20260507170044 | 13 | 281 | 1.6 | 14.5 | 0.00 | 0.00 | 0.00 | 48 | 1013.6 |
| 20260507170006 | 13 | 248 | 3.2 | 14.5 | 0.00 | 0.00 | 0.00 | 49 | 1013.5 |
| 20260507165005 | 13 | 293 | 6.4 | 12.9 | 0.00 | 0.00 | 0.00 | 48 | 1013.6 |
| 20260507164607 | 13 | 296 | 3.2 | 12.9 | 0.00 | 0.00 | 0.00 | 48 | 1013.7 |
| 20260507164005 | 13 | 351 | 6.4 | 14.5 | 0.00 | 0.00 | 0.00 | 48 | 1013.6 |
| 20260507163006 | 13 | 314 | 4.8 | 14.5 | 0.00 | 0.00 | 0.00 | 49 | 1013.8 |
| 20260507162005 | 13 | 312 | 9.7 | 16.1 | 0.00 | 0.00 | 0.00 | 47 | 1013.8 |
| 20260507161533 | 13 | 273 | 6.4 | 12.9 | 0.00 | 0.00 | 0.00 | 49 | 1014.0 |
| 20260507161009 | 13 | 283 | 6.4 | 11.3 | 0.00 | 0.00 | 0.00 | 48 | 1014.0 |
| 20260507160036 | 12 | 321 | 1.6 | 9.7 | 0.00 | 0.00 | 0.00 | 49 | 1014.1 |
| 20260507160005 | 12 | 324 | 3.2 | 9.7 | 0.00 | 0.00 | 0.00 | 49 | 1014.0 |
| 20260507155004 | 12 | 262 | 3.2 | 9.7 | 0.00 | 0.00 | 0.00 | 50 | 1014.1 |
| 20260507154540 | 12 | 312 | 1.6 | 9.7 | 0.00 | 0.05 | 0.00 | 50 | 1014.2 |
| 20260507154005 | 13 | 307 | 4.8 | 9.7 | 0.00 | 0.00 | 0.00 | 51 | 1014.2 |
| 20260507153051 | 12 | 245 | 3.2 | 9.7 | 0.00 | 0.05 | 0.00 | 50 | 1014.3 |
| 20260507153005 | 13 | 250 | 6.4 | 9.7 | 0.00 | 0.00 | 0.00 | 50 | 1014.2 |
| 20260507152005 | 12 | 265 | 4.8 | 6.4 | 0.00 | 0.00 | 0.00 | 51 | 1014.3 |
| 20260507151603 | 12 | 278 | 1.6 | 11.3 | 0.00 | 0.05 | 0.00 | 54 | 1014.5 |
| 20260507150015 | 12 | 256 | 3.2 | 11.3 | 0.00 | 0.05 | 0.00 | 53 | 1014.7 |
| 20260507150006 | 12 | 272 | 9.7 | 11.3 | 0.00 | 0.00 | 0.00 | 53 | 1014.6 |
| 20260507145004 | 12 | 271 | 8.0 | 11.3 | 0.00 | 0.00 | 0.00 | 54 | 1014.8 |
| 20260507144530 | 12 | 265 | 1.6 | 9.7 | 0.00 | 0.13 | 0.00 | 53 | 1014.9 |
| 20260507144006 | 12 | 253 | 1.6 | 9.7 | 0.00 | 0.00 | 0.00 | 52 | 1014.9 |
| 20260507143036 | 11 | 257 | 6.4 | 16.1 | 0.00 | 0.13 | 0.00 | 51 | 1015.1 |
| 20260507143005 | 11 | 297 | 3.2 | 16.1 | 0.00 | 0.00 | 0.00 | 51 | 1015.0 |
| 20260507142009 | 12 | 285 | 4.8 | 9.7 | 0.00 | 0.00 | 0.00 | 56 | 1015.2 |
| 20260507141553 | 11 | 288 | 3.2 | 9.7 | 0.00 | 0.13 | 0.00 | 61 | 1015.4 |
| 20260507141006 | 11 | 324 | 3.2 | 9.7 | 0.00 | 0.00 | 0.00 | 63 | 1015.4 |
| 20260507140006 | 11 | 255 | 0.0 | 11.3 | 0.00 | 0.00 | 0.00 | 59 | 1015.5 |
| 20260507135005 | 11 | 258 | 0.0 | 4.8 | 0.00 | 0.00 | 0.00 | 64 | 1015.5 |
| 20260507134526 | 11 | 238 | 0.0 | 6.4 | 0.00 | 0.20 | 0.00 | 63 | 1015.7 |
| 20260507134004 | 11 | 278 | 4.8 | 4.8 | 0.00 | 0.00 | 0.00 | 65 | 1015.6 |
| 20260507133027 | 10 | 245 | 0.0 | 9.7 | 0.00 | 0.20 | 0.00 | 67 | 1015.8 |
| 20260507133005 | 10 | 266 | 1.6 | 9.7 | 0.00 | 0.00 | 0.00 | 66 | 1015.7 |
| 20260507132004 | 10 | 276 | 3.2 | 6.4 | 0.00 | 0.00 | 0.00 | 60 | 1015.8 |
| 20260507131540 | 10 | 251 | 0.0 | 6.4 | 0.00 | 0.20 | 0.00 | 62 | 1015.8 |
| 20260507131005 | 11 | 227 | 0.0 | 0.0 | 0.00 | 0.00 | 0.00 | 70 | 1015.6 |
| 20260507130048 | 10 | 138 | 0.0 | 1.6 | 0.00 | 0.20 | 0.00 | 75 | 1015.7 |
| 20260507124559 | 9 | 150 | 0.0 | 1.6 | 0.00 | 0.33 | 0.00 | 76 | 1015.8 |
| 20260507124004 | 9 | 150 | 0.0 | 0.0 | 0.00 | 0.00 | 0.00 | 76 | 1015.8 |
| 20260507123017 | 8 | 162 | 0.0 | 1.6 | 0.00 | 0.33 | 0.00 | 81 | 1016.0 |
| 20260507123004 | 8 | 162 | 0.0 | 1.6 | 0.00 | 0.00 | 0.00 | 81 | 1015.8 |
| 20260507122005 | 8 | 296 | 0.0 | 1.6 | 0.00 | 0.00 | 0.00 | 85 | 1015.8 |
| 20260507121523 | 8 | 300 | 0.0 | 0.0 | 0.00 | 0.33 | 0.00 | 87 | 1015.8 |
| 20260507121004 | 7 | 300 | 0.0 | 0.0 | 0.00 | 0.00 | 0.00 | 90 | 1015.7 |
| 20260507120036 | 6 | 300 | 0.0 | 0.0 | 0.00 | 0.33 | 0.00 | 96 | 1015.8 |
| 20260507120006 | 7 | 300 | 0.0 | 0.0 | 0.00 | 0.00 | 0.00 | 96 | 1015.7 |
| 20260507115005 | 6 | 300 | 0.0 | 0.0 | 0.00 | 0.00 | 0.00 | 97 | 1015.7 |
| 20260507114549 | 5 | 300 | 0.0 | 0.0 | 0.00 | 0.38 | 0.00 | 97 | 1015.8 |
| 20260507114004 | 5 | 300 | 0.0 | 0.0 | 0.00 | 0.00 | 0.00 | 97 | 1015.6 |
| 20260507113103 | 4 | 300 | 0.0 | 0.0 | 0.00 | 0.38 | 0.00 | 97 | 1015.6 |
| 20260507113005 | 5 | 300 | 0.0 | 0.0 | 0.00 | 0.00 | 0.00 | 97 | 1015.5 |
| 20260507112004 | 4 | 300 | 0.0 | 0.0 | 0.00 | 0.00 | 0.00 | 97 | 1015.4 |
| 20260507111520 | 3 | 300 | 0.0 | 0.0 | 0.00 | 0.38 | 0.00 | 97 | 1015.3 |
| 20260507111004 | 3 | 300 | 0.0 | 0.0 | 0.00 | 0.00 | 0.00 | 97 | 1015.2 |
| 20260507110030 | 3 | 300 | 0.0 | 0.0 | 0.00 | 0.38 | 0.00 | 97 | 1015.3 |
| 20260507110007 | 3 | 300 | 0.0 | 0.0 | 0.00 | 0.00 | 0.00 | 97 | 1015.2 |
| 20260507105005 | 3 | 300 | 0.0 | 0.0 | 0.00 | 0.00 | 0.00 | 97 | 1015.2 |
| 20260507104540 | 3 | 300 | 0.0 | 0.0 | 0.00 | 0.99 | 0.00 | 97 | 1015.2 |
| 20260507104004 | 3 | 300 | 0.0 | 0.0 | 0.00 | 0.00 | 0.00 | 97 | 1015.1 |
| 20260507103057 | 3 | 300 | 0.0 | 0.0 | 0.00 | 0.99 | 0.00 | 96 | 1015.1 |
| 20260507102006 | 3 | 300 | 0.0 | 0.0 | 0.00 | 0.00 | 0.00 | 96 | 1014.9 |
| 20260507101515 | 3 | 300 | 0.0 | 0.0 | 0.00 | 0.99 | 0.00 | 96 | 1015.0 |
| 20260507101004 | 3 | 300 | 0.0 | 0.0 | 0.00 | 0.00 | 0.00 | 95 | 1014.8 |
| 20260507100018 | 3 | 300 | 0.0 | 0.0 | 0.00 | 0.99 | 0.00 | 96 | 1014.9 |
| 20260507100005 | 3 | 300 | 0.0 | 0.0 | 0.00 | 0.00 | 0.00 | 96 | 1014.8 |
| 20260507095004 | 4 | 300 | 0.0 | 0.0 | 0.00 | 0.00 | 0.00 | 95 | 1014.7 |
| 20260507094531 | 3 | 300 | 0.0 | 0.0 | 0.00 | 1.32 | 0.00 | 95 | 1014.9 |
| 20260507094005 | 4 | 300 | 0.0 | 0.0 | 0.00 | 0.00 | 0.00 | 95 | 1014.6 |
| 20260507093042 | 4 | 300 | 0.0 | 0.0 | 0.00 | 1.32 | 0.00 | 95 | 1014.8 |
| 20260507093004 | 4 | 300 | 0.0 | 0.0 | 0.00 | 0.00 | 0.00 | 95 | 1014.6 |
| 20260507092005 | 5 | 300 | 0.0 | 1.6 | 0.00 | 0.00 | 0.00 | 95 | 1014.9 |
| 20260507091631 | 4 | 300 | 0.0 | 1.6 | 0.00 | 1.32 | 0.00 | 95 | 1015.0 |
| 20260507091004 | 5 | 300 | 0.0 | 1.6 | 0.00 | 0.00 | 0.00 | 94 | 1014.9 |
| 20260507090010 | 5 | 300 | 0.0 | 0.0 | 0.00 | 0.00 | 0.00 | 95 | 1014.8 |
| 20260507090005 | 5 | 300 | 0.0 | 0.0 | 0.00 | 1.32 | 0.00 | 95 | 1014.9 |
| 20260507085004 | 5 | 300 | 0.0 | 0.0 | 0.00 | 0.00 | 0.00 | 94 | 1014.8 |
| 20260507084529 | 5 | 300 | 0.0 | 0.0 | 0.00 | 1.52 | 0.00 | 94 | 1014.9 |
| 20260507084004 | 5 | 300 | 0.0 | 0.0 | 0.00 | 0.00 | 0.00 | 94 | 1014.8 |
| 20260507083027 | 5 | 300 | 0.0 | 0.0 | 0.00 | 1.52 | 0.00 | 93 | 1014.9 |
| 20260507082004 | 6 | 300 | 0.0 | 0.0 | 0.00 | 0.00 | 0.00 | 93 | 1014.8 |
| 20260507081539 | 6 | 300 | 0.0 | 0.0 | 0.00 | 1.52 | 0.00 | 93 | 1014.8 |
| 20260507081004 | 6 | 300 | 0.0 | 0.0 | 0.00 | 0.00 | 0.00 | 92 | 1014.7 |
| 20260507080048 | 6 | 300 | 0.0 | 0.0 | 0.00 | 1.52 | 0.00 | 90 | 1014.7 |
| 20260507080005 | 6 | 300 | 0.0 | 0.0 | 0.00 | 0.00 | 0.00 | 90 | 1014.6 |
| 20260507075005 | 6 | 300 | 0.0 | 0.0 | 0.00 | 0.00 | 0.00 | 88 | 1014.7 |
| 20260507074601 | 6 | 300 | 0.0 | 0.0 | 0.00 | 1.60 | 0.00 | 88 | 1014.8 |
| 20260507074004 | 7 | 300 | 0.0 | 0.0 | 0.00 | 0.00 | 0.00 | 87 | 1014.8 |
| 20260507073011 | 7 | 300 | 0.0 | 0.0 | 0.00 | 1.60 | 0.00 | 85 | 1014.9 |
| 20260507071523 | 7 | 300 | 0.0 | 0.0 | 0.00 | 1.60 | 0.00 | 82 | 1014.7 |
| 20260507071004 | 7 | 300 | 0.0 | 0.0 | 0.00 | 0.00 | 0.00 | 82 | 1014.7 |
| 20260507070048 | 7 | 300 | 0.0 | 0.0 | 0.00 | 1.60 | 0.00 | 81 | 1014.8 |
| 20260507070009 | 8 | 300 | 0.0 | 0.0 | 0.00 | 0.00 | 0.00 | 81 | 1014.6 |
| 20260507064550 | 8 | 300 | 0.0 | 0.0 | 0.00 | 1.75 | 0.00 | 77 | 1014.9 |
| 20260507063102 | 8 | 300 | 0.0 | 0.0 | 0.00 | 1.75 | 0.00 | 77 | 1014.7 |
| 20260507063010 | 8 | 300 | 0.0 | 0.0 | 0.00 | 0.00 | 0.00 | 76 | 1014.6 |
| 20260507062004 | 8 | 300 | 0.0 | 0.0 | 0.00 | 0.00 | 0.00 | 76 | 1014.8 |
| 20260507061514 | 8 | 300 | 0.0 | 0.0 | 0.00 | 1.75 | 0.00 | 77 | 1014.8 |
| 20260507061004 | 8 | 300 | 0.0 | 0.0 | 0.00 | 0.00 | 0.00 | 78 | 1014.9 |
| 20260507060028 | 8 | 300 | 0.0 | 1.6 | 0.00 | 1.75 | 0.00 | 77 | 1015.1 |
| 20260507060004 | 8 | 300 | 0.0 | 1.6 | 0.00 | 0.00 | 0.00 | 76 | 1015.0 |
| 20260507054536 | 8 | 300 | 0.0 | 1.6 | 0.00 | 1.88 | 0.00 | 76 | 1015.2 |
| 20260507054004 | 8 | 300 | 0.0 | 0.0 | 0.00 | 0.00 | 0.00 | 77 | 1015.3 |
| 20260507053053 | 8 | 300 | 0.0 | 1.6 | 0.00 | 1.88 | 0.00 | 78 | 1015.5 |
| 20260507053005 | 8 | 300 | 0.0 | 1.6 | 0.00 | 0.00 | 0.00 | 78 | 1015.4 |
| 20260507052006 | 8 | 48 | 0.0 | 0.0 | 0.00 | 0.00 | 0.00 | 77 | 1015.3 |
| 20260507051603 | 8 | 48 | 0.0 | 0.0 | 0.00 | 1.88 | 0.00 | 77 | 1015.4 |
| 20260507051004 | 9 | 49 | 0.0 | 0.0 | 0.00 | 0.00 | 0.00 | 76 | 1015.2 |
| 20260507050011 | 8 | 48 | 0.0 | 0.0 | 0.00 | 1.88 | 0.00 | 73 | 1015.3 |
| 20260507050005 | 9 | 48 | 0.0 | 0.0 | 0.00 | 0.00 | 0.00 | 73 | 1015.2 |
| 20260507045005 | 9 | 49 | 0.0 | 0.0 | 0.00 | 0.00 | 0.00 | 72 | 1015.3 |
| 20260507044526 | 9 | 48 | 0.0 | 0.0 | 0.00 | 1.93 | 0.00 | 71 | 1015.5 |
| 20260507044005 | 9 | 48 | 0.0 | 1.6 | 0.00 | 0.00 | 0.00 | 71 | 1015.3 |
| 20260507043036 | 9 | 51 | 0.0 | 3.2 | 0.00 | 1.93 | 0.00 | 70 | 1015.3 |
| 20260507043004 | 9 | 37 | 1.6 | 1.6 | 0.00 | 0.00 | 0.00 | 71 | 1015.2 |
| 20260507042009 | 9 | 37 | 0.0 | 1.6 | 0.00 | 0.00 | 0.00 | 70 | 1015.2 |
| 20260507041549 | 9 | 37 | 0.0 | 1.6 | 0.00 | 1.93 | 0.00 | 71 | 1015.5 |
| 20260507041004 | 10 | 37 | 0.0 | 0.0 | 0.00 | 0.00 | 0.00 | 70 | 1015.3 |
| 20260507040105 | 9 | 37 | 0.0 | 4.8 | 0.00 | 1.93 | 0.00 | 69 | 1015.2 |
| 20260507040005 | 10 | 36 | 1.6 | 4.8 | 0.00 | 0.00 | 1.93 | 68 | 1015.1 |
| 20260507035005 | 10 | 22 | 0.0 | 4.8 | 0.00 | 0.00 | 1.93 | 69 | 1015.0 |
| 20260507034511 | 9 | 18 | 1.6 | 4.8 | 0.00 | 1.93 | 1.93 | 69 | 1015.1 |
| 20260507034004 | 10 | 8 | 0.0 | 3.2 | 0.00 | 0.00 | 1.93 | 70 | 1015.1 |
| 20260507033025 | 10 | 335 | 0.0 | 3.2 | 0.00 | 1.93 | 1.93 | 69 | 1015.2 |
| 20260507033005 | 10 | 335 | 1.6 | 3.2 | 0.00 | 0.00 | 1.93 | 69 | 1015.2 |
| 20260507032009 | 10 | 8 | 0.0 | 3.2 | 0.00 | 0.00 | 1.93 | 69 | 1014.9 |
| 20260507031537 | 10 | 319 | 0.0 | 3.2 | 0.00 | 1.93 | 1.93 | 69 | 1014.8 |
| 20260507031004 | 10 | 32 | 0.0 | 3.2 | 0.00 | 0.00 | 1.93 | 68 | 1014.6 |
| 20260507030048 | 10 | 8 | 0.0 | 3.2 | 0.00 | 1.93 | 1.93 | 68 | 1014.8 |
| 20260507030004 | 10 | 345 | 0.0 | 3.2 | 0.00 | 0.00 | 1.93 | 68 | 1014.8 |
| 20260507025004 | 10 | 24 | 0.0 | 3.2 | 0.00 | 0.00 | 1.93 | 68 | 1014.4 |
| 20260507024611 | 10 | 6 | 0.0 | 3.2 | 0.00 | 1.93 | 1.93 | 68 | 1014.6 |
| 20260507024004 | 10 | 358 | 0.0 | 3.2 | 0.00 | 0.00 | 1.93 | 67 | 1014.4 |
| 20260507023011 | 10 | 26 | 0.0 | 6.4 | 0.00 | 1.93 | 1.93 | 68 | 1014.6 |
| 20260507023004 | 10 | 20 | 1.6 | 6.4 | 0.00 | 0.00 | 1.93 | 68 | 1014.5 |
| 20260507022005 | 10 | 350 | 3.2 | 4.8 | 0.00 | 0.00 | 1.93 | 69 | 1014.4 |
| 20260507021524 | 10 | 4 | 0.0 | 4.8 | 0.00 | 1.93 | 1.93 | 69 | 1014.5 |
| 20260507021004 | 10 | 64 | 1.6 | 3.2 | 0.00 | 0.00 | 1.93 | 69 | 1014.2 |
| 20260507020038 | 10 | 36 | 0.0 | 3.2 | 0.00 | 1.93 | 1.93 | 70 | 1014.2 |
| 20260507015004 | 10 | 24 | 0.0 | 3.2 | 0.00 | 0.00 | 1.93 | 68 | 1014.0 |
| 20260507014552 | 10 | 24 | 0.0 | 8.0 | 0.00 | 1.93 | 1.93 | 68 | 1013.9 |
| 20260507014005 | 11 | 24 | 0.0 | 8.0 | 0.00 | 0.00 | 1.93 | 68 | 1013.8 |
| 20260507013104 | 10 | 13 | 1.6 | 6.4 | 0.00 | 1.93 | 1.93 | 69 | 1013.7 |
| 20260507013004 | 11 | 13 | 3.2 | 6.4 | 0.00 | 0.00 | 1.93 | 68 | 1013.5 |
| 20260507012004 | 11 | 30 | 3.2 | 9.7 | 0.00 | 0.00 | 1.93 | 69 | 1013.5 |
| 20260507011526 | 11 | 58 | 3.2 | 9.7 | 0.00 | 1.93 | 1.93 | 69 | 1013.5 |
| 20260507011004 | 11 | 34 | 0.0 | 8.0 | 0.00 | 0.00 | 1.93 | 72 | 1013.6 |
| 20260507010027 | 11 | 37 | 3.2 | 8.0 | 0.00 | 1.93 | 1.93 | 74 | 1013.9 |
| 20260507010005 | 11 | 331 | 1.6 | 8.0 | 0.00 | 0.00 | 1.93 | 74 | 1013.8 |
| 20260507005004 | 11 | 23 | 1.6 | 11.3 | 0.00 | 0.00 | 1.93 | 73 | 1013.7 |
| 20260507004541 | 11 | 44 | 1.6 | 4.8 | 0.00 | 1.93 | 1.93 | 77 | 1014.0 |
| 20260507004004 | 11 | 45 | 0.0 | 3.2 | 0.00 | 0.00 | 1.93 | 76 | 1013.8 |
| 20260507003055 | 11 | 269 | 0.0 | 0.0 | 0.00 | 1.93 | 1.93 | 76 | 1013.8 |
| 20260507003004 | 11 | 269 | 0.0 | 0.0 | 0.00 | 0.00 | 1.93 | 76 | 1013.7 |
| 20260507001507 | 11 | 269 | 0.0 | 0.0 | 0.00 | 1.93 | 1.93 | 78 | 1014.1 |
| 20260507000018 | 11 | 269 | 0.0 | 1.6 | 0.00 | 1.93 | 1.93 | 75 | 1013.6 |
| 20260507000005 | 11 | 269 | 0.0 | 1.6 | 0.00 | 0.00 | 1.93 | 75 | 1013.5 |
| 20260506235005 | 12 | 269 | 0.0 | 3.2 | 0.00 | 0.00 | 1.93 | 75 | 1013.5 |
| 20260506234529 | 11 | 262 | 0.0 | 3.2 | 0.00 | 1.93 | 1.93 | 75 | 1013.5 |
| 20260506234004 | 12 | 262 | 0.0 | 3.2 | 0.00 | 0.00 | 1.93 | 74 | 1013.4 |
| 20260506233052 | 11 | 8 | 0.0 | 3.2 | 0.00 | 1.93 | 1.93 | 74 | 1013.4 |
| 20260506232004 | 12 | 324 | 0.0 | 8.0 | 0.00 | 0.00 | 1.93 | 76 | 1013.1 |
| 20260506231557 | 11 | 273 | 1.6 | 6.4 | 0.00 | 1.93 | 1.93 | 77 | 1013.2 |
| 20260506231004 | 12 | 317 | 0.0 | 0.0 | 0.00 | 0.00 | 1.93 | 80 | 1013.1 |
| 20260506230009 | 12 | 317 | 0.0 | 3.2 | 0.00 | 1.93 | 1.93 | 79 | 1013.0 |
| 20260506230005 | 12 | 317 | 0.0 | 3.2 | 0.00 | 0.00 | 1.93 | 79 | 1012.9 |
| 20260506225004 | 12 | 33 | 0.0 | 3.2 | 0.00 | 0.00 | 1.93 | 78 | 1012.8 |
| 20260506224517 | 12 | 33 | 0.0 | 1.6 | 0.00 | 1.93 | 1.93 | 78 | 1013.0 |
| 20260506224010 | 12 | 25 | 1.6 | 3.2 | 0.00 | 0.00 | 1.93 | 78 | 1012.7 |
| 20260506223028 | 12 | 8 | 0.0 | 3.2 | 0.00 | 1.93 | 1.93 | 78 | 1012.7 |
| 20260506223004 | 12 | 8 | 0.0 | 3.2 | 0.00 | 0.00 | 1.93 | 78 | 1012.6 |
| 20260506222005 | 12 | 92 | 0.0 | 1.6 | 0.00 | 0.00 | 1.93 | 78 | 1012.7 |
| 20260506221546 | 12 | 92 | 0.0 | 1.6 | 0.00 | 1.93 | 1.93 | 78 | 1012.9 |